Regional Weather Roundup
Issued by NWS

Home | Current Version | Previous Version | Graphics & Text | Print | Product List | Glossary On
Versions: 1 2 3 4 5 6 7 8 9 10 11 12 13 14 15 16 17 18 19 20 21 22 23 24 25 26 27 28 29 30 31 32 33 34 35 36 37 38 39 40 41 42 43 44 45 46 47 48 49 50
000
ASUS43 KOAX 160302
RWRNE

WEATHER ROUNDUP FOR NEBRASKA
NATIONAL WEATHER SERVICE OMAHA NE
900 PM CST FRI DEC 15 2017

NOTES: SATELLITE DATA IS BEING USED TO AUGMENT CLOUD COVER ABOVE
       12000 FEET.
       "FAIR" INDICATES FEW OR NO CLOUDS BELOW 12,000 FEET WITH NO
       SIGNIFICANT WEATHER AND/OR OBSTRUCTIONS TO VISIBILITY.


NEZ001>004-019>022-054>056-160400-
NEBRASKA PANHANDLE

CITY           SKY/WX    TMP DP  RH WIND       PRES   REMARKS
SCOTTSBLUFF    CLOUDY    50  10  20 W16       29.77F
ALLIANCE       CLOUDY    38  15  39 W9        29.74F WCI  31
CHADRON        CLOUDY    38  19  46 N5        29.73R WCI  34
GORDON         FAIR      35  20  54 SW5       29.71F WCI  31
SIDNEY         CLOUDY    39  12  33 W12       29.81S WCI  32
$$

NEZ057>060-069>072-079>082-160400-
SOUTHWEST NEBRASKA

CITY           SKY/WX    TMP DP  RH WIND       PRES   REMARKS
NORTH PLATTE   CLOUDY    31  18  58 CALM      29.76F
IMPERIAL       CLOUDY    39   9  29 W9        29.79F WCI  33
LEXINGTON      CLOUDY    40  14  33 SW3       29.76F
MCCOOK         CLOUDY    41  12  30 SW8       29.80S
OGALLALA       CLOUDY    33  15  47 CALM      29.78F
$$

NEZ005>010-023>029-035>040-094-160400-
NORTH CENTRAL NEBRASKA

CITY           SKY/WX    TMP DP  RH WIND       PRES   REMARKS
VALENTINE      PTCLDY    37  25  61 W9        29.69F WCI  30
AINSWORTH      CLOUDY    39  26  60 W9        29.69S WCI  33
BROKEN BOW     CLOUDY    31  22  69 NW3       29.74S
O`NEILL        CLOUDY    36  29  75 SW9       29.69S WCI  29
ORD            CLOUDY    38  24  57 SW12      29.72S WCI  30
THEDFORD       PTCLDY    41  19  40 W6        29.72F
$$

NEZ041-046>049-061>064-073>077-083>087-160400-
SOUTH CENTRAL NEBRASKA

CITY           SKY/WX    TMP DP  RH WIND       PRES   REMARKS
GRAND ISLAND   CLOUDY    43  21  41 SW14      29.75F
AURORA         CLOUDY    40  21  47 SW15      29.75F WCI  31
HASTINGS       CLOUDY    43  18  36 SW10      29.77F
HEBRON         PTCLDY    43  22  43 SW13G18   29.81F
HOLDREGE       CLOUDY    41  17  37 SW12      29.78F
KEARNEY        CLOUDY    44  16  32 SW14      29.77F
$$

NEZ011>018-030>034-042>045-160400-
NORTHEAST NEBRASKA

CITY           SKY/WX    TMP DP  RH WIND       PRES   REMARKS
NORFOLK        CLOUDY    42  26  53 SW12      29.69F
ALBION         CLOUDY    38  27  64 CALM      29.72F
BLAIR          CLOUDY    40  26  59 S10       29.75F WCI  33
COLUMBUS       CLOUDY    39  25  57 SW5       29.75F
FREMONT        CLOUDY    41  26  53 SW8       29.76F
TEKAMAH        CLOUDY    36  23  59 S10       29.74F WCI  28
WAYNE          CLOUDY    37  27  67 S8        29.69F WCI  31
$$

NEZ050>053-065>068-078-088>093-160400-
SOUTHEAST NEBRASKA

CITY           SKY/WX    TMP DP  RH WIND       PRES   REMARKS
LINCOLN        CLOUDY    44  24  45 SW15      29.79S
OMAHA EPPLEY   CLOUDY    36  23  59 S9        29.78F WCI  29
BEATRICE       CLEAR     43  24  46 S15       29.82S
FALLS CITY     CLEAR     42  23  46 S15       29.84F
NEBRASKA CITY  CLEAR     42  25  50 SW15      29.80F
PLATTSMOUTH    CLOUDY    39  25  58 S12       29.78F WCI  31
$$

NEZ044-045-051>053-067-160400-
OMAHA AREA

CITY           SKY/WX    TMP DP  RH WIND       PRES   REMARKS
OMAHA EPPLEY   CLOUDY    36  23  59 S9        29.78F WCI  29
BLAIR          CLOUDY    40  26  59 S10       29.75F WCI  33
FREMONT        CLOUDY    41  26  53 SW8       29.76F
MILLARD        CLOUDY    38  26  60 SE5       29.78F WCI  35
OFFUTT AFB     CLOUDY    28  21  74 S6        29.77F WCI  22
PLATTSMOUTH    CLOUDY    39  25  58 S12       29.78F WCI  31
WAHOO          FAIR      37  24  59 S5        29.77F WCI  33
$$




USA.gov is the U.S. government's official web portal to all federal, state and local government web resources and services.